timestamp,wind_dir_avg,wind_spd_avg,wind_spd_max_dir,wind_spd_gust,battery_voltage,lat,long
2023-11-09 00:04:01+00:00,48.0,9.25,47.0,10.39,12.17,47.59359,-54.27349
2023-11-09 00:14:01+00:00,46.0,9.08,47.0,10.33,12.17,47.59359,-54.27349
2023-11-09 00:24:01+00:00,46.0,9.02,46.0,9.99,12.17,47.59359,-54.27349
2023-11-09 00:34:01+00:00,42.0,9.38,42.0,10.35,12.17,47.59359,-54.27349
2023-11-09 00:44:01+00:00,49.0,8.62,46.0,9.73,12.17,47.59359,-54.27349
2023-11-09 00:54:01+00:00,44.0,8.11,42.0,9.72,12.17,47.59359,-54.27349
2023-11-09 01:04:01+00:00,50.0,9.11,45.0,10.21,12.17,47.59359,-54.27349
2023-11-09 01:14:00+00:00,45.0,8.66,47.0,9.84,12.17,47.59359,-54.27349
2023-11-09 01:24:00+00:00,43.0,9.12,40.0,10.11,12.17,47.59359,-54.27349
2023-11-09 01:34:00+00:00,42.0,9.8,43.0,10.5,12.17,47.59359,-54.27349
2023-11-09 01:44:00+00:00,50.0,8.16,49.0,9.67,12.17,47.59359,-54.27349
2023-11-09 01:54:00+00:00,46.0,9.14,49.0,10.46,12.17,47.59359,-54.27349
2023-11-09 02:04:00+00:00,50.0,8.17,52.0,9.77,12.17,47.59359,-54.27349
2023-11-09 02:14:00+00:00,55.0,8.47,56.0,9.18,12.09,47.59359,-54.27349
2023-11-09 02:24:00+00:00,58.0,6.42,59.0,7.92,12.09,47.59359,-54.27349
2023-11-09 02:34:00+00:00,42.0,6.05,51.0,7.42,12.09,47.59359,-54.27349
2023-11-09 02:44:00+00:00,42.0,6.82,46.0,8.68,12.09,47.59359,-54.27349
2023-11-09 02:54:00+00:00,40.0,8.61,40.0,9.83,12.09,47.59359,-54.27349
2023-11-09 03:04:00+00:00,43.0,7.59,48.0,9.16,12.09,47.59359,-54.27349
2023-11-09 03:14:00+00:00,39.0,8.47,47.0,9.64,12.09,47.59359,-54.27349
2023-11-09 03:24:00+00:00,42.0,8.45,43.0,9.79,12.09,47.59359,-54.27349
2023-11-09 03:34:00+00:00,40.0,9.02,42.0,9.84,12.09,47.59359,-54.27349
2023-11-09 03:44:00+00:00,46.0,8.95,47.0,10.08,12.09,47.59359,-54.27349
2023-11-09 03:54:00+00:00,42.0,8.0,46.0,9.16,12.09,47.59359,-54.27349
2023-11-09 04:04:00+00:00,41.0,7.94,41.0,8.99,12.09,47.59359,-54.27349
2023-11-09 04:14:00+00:00,40.0,7.45,45.0,8.54,12.09,47.59359,-54.27349
2023-11-09 04:24:00+00:00,43.0,7.75,45.0,9.13,12.09,47.59359,-54.27349
2023-11-09 04:34:00+00:00,42.0,7.38,49.0,8.72,12.09,47.59359,-54.27349
2023-11-09 04:44:00+00:00,33.0,8.34,37.0,9.15,12.09,47.59359,-54.27349
2023-11-09 04:54:00+00:00,38.0,7.93,47.0,8.89,12.09,47.59359,-54.27349
2023-11-09 05:04:00+00:00,34.0,8.52,36.0,9.18,12.09,47.59359,-54.27349
2023-11-09 05:14:00+00:00,40.0,7.84,46.0,8.96,12.09,47.59359,-54.27349
2023-11-09 05:24:00+00:00,35.0,6.75,36.0,7.69,12.09,47.59359,-54.27349
2023-11-09 05:34:00+00:00,31.0,7.06,44.0,8.37,12.09,47.59359,-54.27349
2023-11-09 05:44:00+00:00,44.0,5.83,40.0,7.16,12.09,47.59359,-54.27349
2023-11-09 05:54:00+00:00,37.0,6.06,48.0,7.38,12.09,47.59359,-54.27349
2023-11-09 06:04:00+00:00,35.0,6.63,48.0,7.79,12.09,47.59359,-54.27349
2023-11-09 06:14:00+00:00,37.0,7.42,41.0,8.09,12.09,47.59359,-54.27349
2023-11-09 06:24:00+00:00,34.0,8.01,35.0,8.84,12.09,47.59359,-54.27349
2023-11-09 06:34:00+00:00,37.0,6.22,37.0,8.13,12.09,47.59359,-54.27349
2023-11-09 06:44:00+00:00,34.0,6.37,43.0,7.65,12.09,47.59359,-54.27349
2023-11-09 06:54:00+00:00,33.0,7.34,37.0,8.27,12.09,47.59359,-54.27349
2023-11-09 07:04:00+00:00,36.0,7.06,40.0,8.96,12.09,47.59359,-54.27349
2023-11-09 07:14:01+00:00,38.0,6.02,49.0,7.3,12.09,47.59359,-54.27349
2023-11-09 07:24:01+00:00,45.0,6.78,49.0,7.65,12.09,47.59359,-54.27349
2023-11-09 07:34:01+00:00,5.0,5.14,2.0,6.02,12.09,47.59359,-54.27349
2023-11-09 07:44:01+00:00,10.0,3.96,45.0,5.04,12.09,47.59359,-54.27349
2023-11-09 07:54:01+00:00,1.0,2.98,356.0,4.01,12.09,47.59359,-54.27349
2023-11-09 08:04:01+00:00,299.0,3.84,290.0,5.12,12.09,47.59359,-54.27349
2023-11-09 08:14:00+00:00,288.0,3.85,286.0,4.39,12.09,47.59359,-54.27349
2023-11-09 08:24:00+00:00,295.0,4.88,290.0,6.54,12.09,47.59359,-54.27349
2023-11-09 08:34:00+00:00,294.0,4.7,288.0,6.05,12.09,47.59359,-54.27349
2023-11-09 08:44:00+00:00,329.0,2.95,315.0,3.72,12.09,47.59359,-54.27349
2023-11-09 08:54:00+00:00,310.0,4.51,304.0,7.0,12.09,47.59359,-54.27349
2023-11-09 09:04:00+00:00,328.0,2.7,315.0,3.34,12.09,47.59359,-54.27349
2023-11-09 09:14:00+00:00,349.0,2.44,355.0,2.83,12.09,47.59359,-54.27349
2023-11-09 09:24:00+00:00,335.0,3.33,311.0,4.74,12.09,47.59359,-54.27349
2023-11-09 09:34:00+00:00,348.0,3.44,345.0,3.85,12.09,47.59359,-54.27349
2023-11-09 09:44:00+00:00,348.0,4.79,341.0,5.62,12.09,47.59359,-54.27349
2023-11-09 09:54:00+00:00,353.0,5.21,357.0,5.68,12.09,47.59359,-54.27349
2023-11-09 10:04:00+00:00,351.0,4.81,352.0,5.75,12.09,47.59359,-54.27349
2023-11-09 10:14:00+00:00,337.0,4.72,320.0,6.02,12.09,47.59359,-54.27349
2023-11-09 10:24:00+00:00,355.0,4.43,359.0,5.14,12.09,47.59359,-54.27349
2023-11-09 10:34:00+00:00,353.0,4.01,350.0,4.86,12.09,47.59359,-54.27349
2023-11-09 10:44:00+00:00,350.0,4.4,352.0,5.16,12.09,47.59359,-54.27349
2023-11-09 10:54:00+00:00,343.0,5.42,334.0,6.12,12.09,47.59359,-54.27349
2023-11-09 11:04:00+00:00,359.0,4.74,357.0,5.51,12.09,47.59359,-54.27349
2023-11-09 11:14:00+00:00,353.0,5.4,354.0,6.18,12.09,47.59359,-54.27349
2023-11-09 11:24:00+00:00,1.0,5.15,0.0,6.19,12.09,47.59359,-54.27349
2023-11-09 11:34:00+00:00,1.0,6.45,0.0,7.12,12.09,47.59359,-54.27349
2023-11-09 11:44:00+00:00,354.0,5.54,355.0,6.88,12.09,47.59359,-54.27349
2023-11-09 11:54:00+00:00,359.0,5.13,359.0,5.72,12.09,47.59359,-54.27349
2023-11-09 12:04:00+00:00,4.0,5.4,5.0,7.21,12.09,47.59359,-54.27349
2023-11-09 12:14:01+00:00,1.0,8.06,2.0,9.06,12.33,47.59359,-54.27349
2023-11-09 12:24:01+00:00,9.0,7.24,0.0,9.1,12.33,47.59359,-54.27349
2023-11-09 12:34:01+00:00,3.0,8.66,358.0,10.63,12.33,47.59359,-54.27349
2023-11-09 12:44:01+00:00,3.0,8.57,357.0,10.09,12.33,47.59359,-54.27349
2023-11-09 12:54:01+00:00,359.0,9.07,356.0,10.68,12.33,47.59359,-54.27349
2023-11-09 13:04:01+00:00,359.0,7.01,357.0,8.17,12.33,47.59359,-54.27349
2023-11-09 13:14:00+00:00,4.0,7.76,3.0,10.14,12.17,47.59359,-54.27349
2023-11-09 13:24:00+00:00,0.0,6.3,359.0,7.41,12.17,47.59359,-54.27349
2023-11-09 13:34:00+00:00,5.0,6.12,6.0,7.24,12.17,47.59359,-54.27349
2023-11-09 13:44:00+00:00,1.0,7.66,0.0,8.55,12.17,47.59359,-54.27349
2023-11-09 13:54:00+00:00,6.0,6.67,10.0,8.16,12.17,47.59359,-54.27349
2023-11-09 14:04:00+00:00,16.0,6.25,17.0,6.93,12.17,47.59359,-54.27349
2023-11-09 14:14:00+00:00,16.0,6.48,17.0,7.76,12.33,47.59359,-54.27349
2023-11-09 14:24:00+00:00,4.0,5.08,10.0,5.89,12.33,47.59359,-54.27349
2023-11-09 14:34:00+00:00,18.0,6.09,20.0,6.88,12.33,47.59359,-54.27349
2023-11-09 14:44:00+00:00,15.0,5.9,19.0,6.89,12.33,47.59359,-54.27349
2023-11-09 14:54:00+00:00,12.0,5.57,14.0,6.57,12.33,47.59359,-54.27349
2023-11-09 15:04:00+00:00,8.0,5.77,4.0,7.0,12.33,47.59359,-54.27349
2023-11-09 15:14:00+00:00,11.0,5.54,10.0,6.94,12.97,47.59359,-54.27349
2023-11-09 15:24:00+00:00,2.0,6.83,1.0,8.64,12.97,47.59359,-54.27349
2023-11-09 15:34:00+00:00,0.0,6.89,2.0,8.12,12.97,47.59359,-54.27349
2023-11-09 15:44:00+00:00,9.0,7.94,6.0,9.37,12.97,47.59359,-54.27349
2023-11-09 15:54:00+00:00,12.0,8.42,13.0,9.28,12.97,47.59359,-54.27349
2023-11-09 16:04:00+00:00,0.0,8.19,357.0,9.41,12.97,47.59359,-54.27349
2023-11-09 16:14:01+00:00,19.0,8.54,24.0,9.79,12.97,47.59359,-54.27349
2023-11-09 16:24:01+00:00,357.0,8.97,358.0,9.65,12.97,47.59359,-54.27349
2023-11-09 16:34:01+00:00,358.0,9.56,358.0,10.42,12.97,47.59359,-54.27349
2023-11-09 16:44:01+00:00,5.0,10.34,2.0,11.85,12.97,47.59359,-54.27349
2023-11-09 16:54:01+00:00,0.0,9.13,357.0,10.2,12.97,47.59359,-54.27349
2023-11-09 17:04:01+00:00,4.0,10.3,5.0,12.39,12.97,47.59359,-54.27349
2023-11-09 17:14:00+00:00,7.0,12.4,16.0,15.26,12.81,47.59359,-54.27349
2023-11-09 17:24:00+00:00,14.0,11.47,15.0,12.88,12.81,47.59359,-54.27349
2023-11-09 17:34:00+00:00,7.0,10.12,7.0,11.44,12.81,47.59359,-54.27349
2023-11-09 17:44:00+00:00,10.0,10.49,15.0,12.68,12.81,47.59359,-54.27349
2023-11-09 17:54:00+00:00,11.0,11.1,10.0,12.22,12.81,47.59359,-54.27349
2023-11-09 18:04:00+00:00,12.0,13.76,12.0,16.75,12.81,47.59359,-54.27349
2023-11-09 18:14:00+00:00,6.0,13.63,1.0,15.65,12.81,47.59359,-54.27349
2023-11-09 18:24:00+00:00,10.0,9.97,4.0,13.38,12.81,47.59359,-54.27349
2023-11-09 18:34:00+00:00,9.0,10.36,16.0,13.86,12.81,47.59359,-54.27349
2023-11-09 18:44:00+00:00,5.0,13.45,10.0,15.15,12.81,47.59359,-54.27349
2023-11-09 18:54:00+00:00,9.0,11.29,3.0,15.16,12.81,47.59359,-54.27349
2023-11-09 19:04:00+00:00,7.0,11.79,1.0,15.19,12.81,47.59359,-54.27349
2023-11-09 19:14:00+00:00,7.0,10.29,7.0,12.65,12.65,47.59359,-54.27349
2023-11-09 19:24:00+00:00,0.0,11.32,355.0,13.75,12.65,47.59359,-54.27349
2023-11-09 19:34:00+00:00,0.0,11.07,358.0,13.43,12.65,47.59359,-54.27349
2023-11-09 19:44:00+00:00,356.0,12.99,358.0,14.75,12.65,47.59359,-54.27349
2023-11-09 19:54:00+00:00,7.0,12.02,6.0,13.94,12.65,47.59359,-54.27349
2023-11-09 20:04:00+00:00,357.0,11.67,1.0,14.02,12.65,47.59359,-54.27349
2023-11-09 20:14:00+00:00,358.0,13.23,355.0,14.64,12.41,47.59359,-54.27349
2023-11-09 20:24:00+00:00,357.0,14.4,356.0,16.21,12.41,47.59359,-54.27349
2023-11-09 20:34:00+00:00,0.0,11.46,358.0,14.68,12.41,47.59359,-54.27349
2023-11-09 20:44:00+00:00,356.0,11.15,353.0,13.17,12.41,47.59359,-54.27349
2023-11-09 20:54:00+00:00,358.0,10.51,354.0,11.98,12.41,47.59359,-54.27349
2023-11-09 21:04:00+00:00,347.0,11.71,345.0,13.55,12.41,47.59359,-54.27349
2023-11-09 21:14:00+00:00,349.0,12.15,353.0,13.58,12.25,47.59359,-54.27349
2023-11-09 21:24:00+00:00,353.0,12.56,346.0,15.38,12.25,47.59359,-54.27349
2023-11-09 21:34:00+00:00,349.0,12.95,355.0,14.81,12.25,47.59359,-54.27349
2023-11-09 21:44:00+00:00,354.0,11.67,358.0,13.72,12.25,47.59359,-54.27349
2023-11-09 21:54:00+00:00,351.0,12.87,2.0,16.63,12.25,47.59359,-54.27349
2023-11-09 22:04:00+00:00,349.0,12.99,358.0,16.76,12.25,47.59359,-54.27349
2023-11-09 22:14:00+00:00,347.0,13.29,356.0,15.91,12.17,47.59359,-54.27349
2023-11-09 22:24:00+00:00,352.0,13.83,349.0,15.53,12.17,47.59359,-54.27349
2023-11-09 22:34:00+00:00,349.0,14.01,340.0,17.04,12.17,47.59359,-54.27349
2023-11-09 22:44:00+00:00,350.0,12.76,351.0,14.3,12.17,47.59359,-54.27349
2023-11-09 22:54:00+00:00,340.0,13.79,334.0,15.76,12.17,47.59359,-54.27349
2023-11-09 23:04:00+00:00,342.0,14.64,337.0,17.79,12.17,47.59359,-54.27349
2023-11-09 23:14:01+00:00,344.0,13.51,335.0,16.39,12.09,47.59359,-54.27349
2023-11-09 23:24:01+00:00,339.0,15.14,343.0,16.57,12.09,47.59359,-54.27349
2023-11-09 23:34:01+00:00,338.0,12.86,343.0,14.65,12.09,47.59359,-54.27349
2023-11-09 23:44:01+00:00,343.0,13.62,345.0,16.78,12.09,47.59359,-54.27349
2023-11-09 23:54:01+00:00,340.0,14.03,340.0,16.9,12.09,47.59359,-54.27349
